Home > Weather > Simi Valley > Past weeks

Flag for USA Past Weather in Simi Valley, California, USA — Yesterday and Last 2 Weeks

Now
76 °F

Passing clouds.


Feels Like: 78 °F
Forecast: 67 / 99 °F
Wind: 3 mph from East

Location: Van Nuys Airport

Current Time: Jul 23, 2016 at 8:05:06 AM

Latest Report: Jul 23, 2016 at 6:51 AM


Visibility: 10 mi

Pressure: 29.80 "Hg

Humidity: 54%

Dew Point: 58 °F

Location of Simi ValleyLocation

Past Weather in Simi Valley — Graph

°F

Simi Valley Temperature Yesterday

Maximum temperature yesterday: 107 °F (at 3:51 PM)
Minimum temperature yesterday: 72 °F (at 3:51 AM)
Average temperature yesterday: 91 °F

High & Low Weather Summary for the Past Weeks

 TemperatureHumidityPressure
High107 °F (Jul 22, 3:51 PM)97% (Jul 14, 6:51 AM)30.02 "Hg (Jul 14, 6:51 AM)
Low61 °F (Jul 17, 4:51 AM)6% (Jul 22, 10:51 PM)29.77 "Hg (Jul 23, 2:51 AM)
Average78 °F52%29.91 "Hg
* Reported Jul 8 6:51 AM — Jul 23 6:51 AM, Simi Valley, Weather by CustomWeather, © 2016

Note: Actual official high and low records may vary slightly from our data, if they occured in-between our weather recording intervals... More about our weather records

Advertising

Simi Valley Weather History for the Previous 24 Hours

Scroll right to see more
 ConditionsComfort  
Time TempWeatherWind HumidityBarometerVisibility
6:51 AM
Sat, Jul 23
76 °FPassing clouds.3 mph54%29.80 "Hg10 mi
5:51 AM75 °FOvercast.No wind55%29.78 "Hg10 mi
4:51 AM78 °FPassing clouds.No wind43%29.77 "Hg10 mi
3:51 AM85 °FPassing clouds.8 mph18%29.77 "Hg10 mi
2:51 AM88 °FPassing clouds.9 mph9%29.77 "Hg10 mi
1:51 AM89 °FClear.12 mph9%29.77 "Hg10 mi
12:51 AM91 °FClear.15 mph7%29.79 "Hg10 mi
11:51 PM
Fri, Jul 22
93 °FClear.7 mph6%29.80 "Hg10 mi
10:51 PM95 °FClear.7 mph6%29.80 "Hg10 mi
9:51 PM94 °FClear.15 mph10%29.80 "Hg10 mi
8:51 PM96 °FSunny.15 mph8%29.79 "Hg10 mi
7:51 PM99 °FSunny.13 mph7%29.78 "Hg10 mi
6:51 PM101 °FSunny.3 mph17%29.78 "Hg10 mi
5:51 PM106 °FSunny.5 mph10%29.77 "Hg10 mi
4:51 PM107 °FSunny.9 mph9%29.78 "Hg10 mi
3:51 PM107 °FSunny.5 mph14%29.80 "Hg10 mi
2:51 PM106 °FSunny.12 mph12%29.83 "Hg10 mi
1:51 PM104 °FSunny.9 mph14%29.85 "Hg10 mi
12:51 PM103 °FSunny.7 mph15%29.88 "Hg10 mi
11:51 AM99 °FSunny.3 mph14%29.90 "Hg10 mi
10:51 AM96 °FSunny.No wind17%29.91 "Hg10 mi
9:51 AM89 °FSunny.No wind24%29.92 "Hg10 mi
8:51 AM86 °FSunny.3 mph30%29.93 "Hg10 mi
Weather by CustomWeather, © 2016

See weather overviewHow to use our weather pages